SCP
0 0 0 0 0 0 0 0 0 0 0 0 0 0 0 0 0 0 0 0 0 -0 -0 -0 0 0 0 0 0 0 0 0 0 0 0 0 0 0 0 -0 -0 -0 -0 -0 -0 -0 -0 -0 -0
0 0 0 0 0 0 0 0 0 0 0 0 0 0 0 0 0 0 -0 0 0 -0 0 0 0 0 0 0 0 0 0 0 0 0 0 0 0 0 0 0 -0 -0 -0 -0 -0 -0 -0 -0 -0
0 0 0 0 0 0 0 0 0 0 0 0 0 0 0 0 0 0 0 0 0 0 0 0 0 0 0 0 0 0 0 0 0 0 0 0 0 0 0 -0 -0 -0 -0 -0 -0 -0 -0 -0 -0
0 0 0 0 0 0 -0 0 0 0 0 0 0 0 0 0 0 0 0 0 0 0 0 0 0 0 0 0 0 0 0 0 0 0 0 0 0 0 0 0 -0 -0 -0 -0 -0 -0 -0 -0 -0
0 0 0 0 0 0 0 0 0 0 0 0 0 0 0 0 0 0 -0 0 0 0 0 0 0 0 0 0 0 0 0 0 0 0 0 0 0 -0 -0 -0 -0 -0 -0 -0 -0 -0 -0 -0 -0
0 0 0 0 0 0 0 0 0 0 0 0 0 0 0 0 0 0 -0 0 0 0 0 0 0 0 0 0 0 0 0 0 0 0 0 0 -0 -0 -0 -0 -0 -0 0 -0 -0 -0 -0 -0 -0
0 0 0 0 0 0 0 0 0 0 0 0 0 0 0 0 0 0 -0 0 1 1 1 1 0 0 0 0 0 0 0 0 0 0 0 0 0 0 0 -0 -0 -0 -0 -0 -0 -0 -0 -0 -0
0 0 0 0 0 0 0 0 0 0 0 0 0 0 0 0 0 0 0 0 1 1 1 0 0 0 0 0 0 0 0 0 0 0 0 0 0 0 0 0 0 -0 -0 -0 -0 -0 -0 -0 -0
0 0 0 0 0 0 0 0 0 0 0 0 0 0 0 0 0 0 0 0 1 1 1 0 0 0 0 0 0 0 0 0 0 0 0 0 0 0 0 0 0 0 -0 -0 0 -0 -0 -0 -0
1 0 0 0 0 0 0 0 0 0 0 0 0 0 0 0 0 0 0 0 0 0 1 0 0 0 0 0 0 0 0 0 0 0 0 0 0 0 0 0 -0 -0 -0 -0 0 -0 -0 -0 -0
0 0 0 0 0 0 0 0 0 0 0 0 0 0 0 0 0 0 0 0 0 0 1 0 0 0 1 0 1 1 1 0 0 0 0 0 0 0 0 0 0 0 0 0 0 0 0 0 0
0 0 0 0 0 0 0 0 0 0 0 0 0 0 0 0 0 0 0 0 1 1 1 0 0 1 1 1 1 1 0 0 0 0 0 0 0 0 0 0 0 0 0 0 0 0 -0 0 0
0 0 0 0 0 0 0 0 0 0 0 0 0 0 0 0 0 0 0 0 1 1 1 1 1 1 1 1 1 0 0 0 0 0 0 0 0 0 0 0 0 0 0 0 0 0 0 0 0
0 0 0 0 0 0 0 0 0 0 0 0 0 0 0 0 0 0 0 0 1 1 2 1 1 1 1 0 0 0 0 0 0 0 0 0 0 0 0 0 0 0 0 0 0 0 0 0 0
0 0 0 0 0 0 0 0 0 0 0 0 0 0 0 0 0 0 0 1 1 2 1 2 1 1 1 0 0 0 0 0 0 0 0 0 0 0 0 0 0 0 0 0 0 0 -0 -0 -0
0 0 0 0 0 0 0 0 0 0 0 0 0 0 0 0 0 0 0 1 1 2 1 2 1 1 1 0 0 0 0 0 0 0 0 0 0 0 0 0 0 0 0 0 0 0 0 -0 0
0 0 0 0 0 0 0 0 0 0 0 0 0 0 0 0 0 0 0 1 1 1 1 1 1 1 0 0 0 0 0 0 0 0 0 0 0 0 0 0 0 0 0 0 0 0 0 0 0
0 0 0 0 0 0 0 0 0 0 0 0 0 0 0 0 0 0 0 0 1 1 2 1 1 0 0 0 0 0 0 0 0 0 0 0 0 0 0 0 0 0 0 0 0 0 0 0 0
0 0 0 0 0 0 0 0 0 0 0 0 0 0 0 0 0 0 0 1 1 1 1 1 0 0 0 0 0 0 0 0 0 0 0 0 0 0 0 0 0 0 0 0 0 0 0 0 0
0 0 0 0 0 0 0 0 0 0 0 0 0 0 0 0 0 0 1 1 1 1 1 1 0 0 0 0 0 0 0 0 0 0 0 0 0 0 0 0 0 0 0 0 0 0 0 0 0
0 0 0 0 0 0 0 0 0 0 0 0 0 0 0 0 0 0 0 1 1 1 0 0 0 0 0 0 0 0 0 0 0 0 0 0 0 0 0 0 0 0 0 0 0 0 0 0 0
0 0 0 -0 0 0 0 0 0 0 0 0 0 0 0 0 0 0 0 1 1 1 0 0 0 0 0 0 0 0 0 0 0 0 0 0 0 0 0 0 0 0 0 0 0 0 0 0 0
0 0 -0 -0 -0 0 0 0 0 0 0 0 0 0 0 0 0 0 0 1 1 1 1 0 0 0 0 0 0 0 0 0 0 0 0 0 0 0 0 0 0 0 0 0 0 0 0 0 0
-0 0 0 0 0 0 0 0 0 0 0 0 0 0 0 0 0 0 0 1 1 1 0 0 0 0 0 0 0 0 0 0 0 0 0 0 0 0 0 0 0 0 0 0 0 0 0 0 0
-0 0 0 0 0 0 -0 0 0 0 0 0 0 0 0 0 0 0 0 0 0 0 0 0 0 0 0 0 0 0 0 0 0 0 0 0 0 0 0 0 0 0 0 0 0 0 0 0 0
0 0 0 0 0 0 0 0 0 0 0 0 0 0 0 0 0 0 0 0 0 0 0 0 0 0 0 0 0 0 0 0 0 0 0 0 0 0 0 0 0 0 0 0 0 0 0 0 0
-0 0 0 0 0 0 0 0 0 0 0 0 0 0 0 0 0 0 0 0 0 0 0 0 0 0 0 0 0 0 0 0 0 0 0 0 0 0 0 0 0 0 0 0 0 0 0 0 0
-0 0 0 0 0 0 0 0 0 0 0 0 0 0 0 0 0 0 0 0 0 0 0 0 0 0 0 0 0 0 0 0 0 0 0 0 0 0 0 0 0 0 0 0 0 0 0 0 0
-0 0 0 0 0 0 0 0 0 0 0 0 0 0 0 0 0 0 0 0 0 0 0 0 0 0 0 0 0 0 0 0 0 0 0 0 0 0 0 0 0 0 0 0 0 0 0 0 0
-0 -0 0 0 0 0 0 0 0 0 0 0 0 0 0 0 0 0 0 0 0 0 0 0 0 0 0 0 0 0 0 0 0 0 0 0 0 0 0 0 0 0 0 0 0 0 0 0 0
Wind_Speed_500mb
33 30 17 22 7 6 41 38 25 28 15 21 16 17 24 35 29 8 8 32 38 59 63 57 55 49 50 46 40 36 37 36 34 34 34 35 36 36 36 37 38 40 40 43 46 45 44 45 47
35 31 28 10 16 21 34 47 39 31 17 24 19 17 14 28 32 12 3 36 45 61 59 59 57 51 49 46 41 37 36 38 36 37 36 36 38 38 38 39 39 40 42 44 45 43 47 47 45
35 34 23 12 23 43 33 41 43 37 27 24 16 17 20 15 25 18 14 30 57 60 57 57 57 53 49 45 43 39 38 38 40 38 37 37 38 37 40 41 40 41 42 43 44 45 45 44 42
28 19 12 23 49 44 56 29 35 34 26 25 25 11 15 29 9 33 31 30 61 60 59 60 58 57 51 45 42 42 41 41 40 38 37 37 39 40 40 40 41 42 46 45 45 44 44 42 41
35 18 25 41 58 49 43 49 35 38 37 33 34 33 13 24 47 19 26 44 61 67 64 66 61 58 52 46 44 44 45 43 41 40 39 41 42 42 41 39 45 48 47 47 47 45 44 44 42
32 25 26 50 56 51 42 38 49 48 43 32 24 46 29 15 34 49 25 50 59 74 68 66 63 60 54 48 46 47 46 46 44 41 40 41 42 42 40 40 50 50 48 46 45 44 42 41 37
42 26 51 54 56 51 59 34 45 51 56 44 27 39 40 36 29 31 31 48 66 72 69 67 65 61 56 48 50 48 48 47 45 43 44 44 44 45 44 45 44 48 48 48 48 47 43 39 36
42 14 54 58 51 59 50 43 36 57 52 39 30 26 34 44 44 33 36 55 70 76 72 68 65 63 61 51 50 50 49 49 48 47 49 47 47 47 47 45 46 46 44 42 42 46 45 42 38
59 25 42 69 59 46 46 37 39 34 47 35 34 35 24 32 47 41 45 58 64 77 72 68 67 62 58 57 56 51 51 51 50 50 51 52 53 53 50 49 52 45 41 43 44 36 44 45 41
28 34 71 41 48 36 39 44 50 29 43 39 30 39 28 26 44 54 63 72 76 80 79 72 70 66 63 62 61 57 55 54 54 54 58 62 61 58 56 54 48 40 35 35 37 39 37 31 33
19 61 31 40 47 62 42 39 46 48 51 64 52 56 44 39 45 56 62 78 94 86 84 79 77 71 71 68 67 63 61 60 60 64 64 56 53 52 47 41 36 37 41 43 44 40 35 33 36
44 52 68 30 32 51 49 44 41 56 49 55 60 61 50 48 51 61 70 70 81 79 90 84 82 79 75 74 71 69 70 68 66 62 62 53 50 50 46 43 47 48 45 45 44 42 39 36 36
42 43 41 55 57 25 53 61 58 60 56 27 52 49 53 54 53 58 72 75 78 92 92 87 83 83 79 76 76 75 73 68 62 53 56 53 51 50 51 53 52 49 45 43 41 38 35 38 36
22 33 57 55 42 59 37 54 62 60 50 59 30 55 57 55 56 59 74 78 78 89 94 94 86 86 84 82 77 76 74 69 61 58 56 52 51 53 56 55 52 50 47 44 38 39 41 41 41
28 45 38 37 56 31 26 44 66 44 46 59 50 39 51 62 60 65 80 85 80 99 100 98 96 90 90 84 79 77 73 67 64 62 57 52 53 56 57 56 54 50 46 41 42 46 48 49 46
12 16 18 28 46 32 35 37 50 53 40 52 55 57 43 55 64 64 75 89 85 93 106 102 98 95 92 86 84 78 74 68 67 64 58 58 57 58 58 57 55 51 48 48 52 54 53 46 37
17 15 33 35 38 43 42 5 25 57 47 52 55 54 52 51 59 63 69 89 90 100 96 96 100 96 93 91 81 78 75 68 68 64 61 62 63 60 59 57 56 55 55 57 57 55 46 42 39
12 12 23 45 26 47 49 25 13 41 56 56 53 47 55 54 63 66 67 74 94 84 99 112 105 100 93 91 83 81 78 71 68 64 64 67 66 64 62 59 59 60 61 61 58 51 47 42 40
29 25 30 18 22 38 48 51 27 39 33 52 63 60 50 56 56 63 69 76 91 92 97 101 106 104 94 92 89 84 81 78 73 69 66 67 67 67 63 61 62 63 60 58 53 50 46 44 37
24 29 35 27 8 6 34 43 43 37 38 54 52 63 55 47 52 59 71 75 92 92 103 105 104 105 99 99 83 88 83 80 78 75 71 68 69 68 65 64 64 64 63 59 54 52 52 44 46
25 26 36 25 9 8 8 30 43 52 47 40 55 59 65 55 52 59 71 74 90 95 101 98 106 100 101 94 92 94 87 87 82 78 74 73 75 72 67 64 62 61 60 58 58 56 48 50 49
19 21 32 30 8 6 8 16 46 48 44 39 30 46 61 60 47 56 68 75 89 97 95 101 100 102 103 101 95 88 94 94 89 85 80 80 80 76 72 67 62 59 59 59 58 57 50 48 48
13 29 27 32 23 7 8 8 30 45 44 48 44 42 48 53 52 48 65 66 80 92 97 97 98 101 102 103 100 95 95 89 93 91 85 83 83 81 78 73 68 64 60 59 58 58 53 50 47
28 13 21 25 13 12 9 7 7 8 15 10 24 52 44 46 51 56 54 65 79 87 92 98 100 100 98 101 99 102 99 98 99 95 91 89 86 85 83 76 71 65 61 58 57 57 57 52 45
37 12 12 16 12 9 19 11 11 18 19 20 23 35 29 34 42 49 61 72 82 84 93 102 101 97 103 99 100 103 103 100 102 102 100 97 95 94 91 83 79 75 67 64 63 62 58 54 49
19 12 6 15 17 15 15 8 10 20 30 31 23 21 25 29 37 43 59 72 83 89 99 100 100 97 100 98 102 97 103 104 111 107 104 101 98 97 96 90 84 80 77 74 71 67 63 60 55
16 9 9 8 7 16 4 8 12 33 34 40 40 31 25 15 37 48 60 73 82 93 100 97 98 94 95 98 96 88 86 88 95 102 105 107 107 102 103 98 95 93 83 79 74 71 69 64 59
16 15 0 3 7 8 9 10 16 40 38 35 32 40 45 25 22 41 64 72 78 92 97 95 94 92 93 90 81 84 89 74 77 69 79 91 99 86 100 103 98 88 83 81 79 78 72 67 62
25 10 8 5 8 3 10 7 21 28 28 32 28 40 41 34 7 36 56 71 75 86 91 94 91 92 91 85 82 77 75 71 71 73 80 90 92 90 101 75 83 83 83 86 74 72 71 69 62
36 21 7 8 8 8 4 8 22 25 21 34 36 36 36 25 15 18 44 59 68 77 82 86 93 88 85 83 80 74 73 70 67 62 63 72 73 78 76 82 62 58 53 55 65 61 63 67 63
Wind_Direction_500mb
210 217 193 165 204 243 230 228 218 197 189 197 161 188 207 216 195 206 195 187 173 176 175 177 178 174 175 173 174 172 170 164 161 153 152 151 147 144 142 137 135 131 127 128 126 125 129 126 122
198 189 186 207 225 209 228 216 204 204 181 158 182 190 201 222 224 271 230 191 174 174 174 176 179 176 177 173 173 174 167 163 160 155 152 152 152 149 144 142 140 135 131 131 128 127 126 126 124
191 177 186 206 226 224 227 215 228 216 184 159 153 209 217 227 217 222 236 186 170 172 172 175 177 178 178 172 171 168 163 157 159 156 153 154 153 152 149 146 143 137 136 135 130 129 128 128 127
186 191 232 230 221 225 234 215 210 192 193 191 190 189 218 216 187 213 228 185 171 172 171 175 179 178 176 172 167 163 160 161 159 156 156 155 155 153 150 145 146 142 140 136 134 132 131 132 130
192 209 225 231 233 224 227 233 198 198 195 192 189 218 225 214 224 225 205 182 174 175 173 173 179 177 176 171 165 161 162 160 160 159 159 157 157 155 150 147 147 142 138 134 132 131 131 131 130
192 218 225 227 223 215 231 209 209 216 214 205 197 223 227 209 214 229 206 180 177 178 175 175 178 176 176 171 163 166 163 162 162 160 160 160 158 150 148 145 143 138 135 134 132 130 127 127 125
217 210 230 235 226 218 222 202 207 209 216 204 212 213 225 232 230 219 206 177 185 176 175 178 178 177 175 169 165 169 167 166 165 163 162 159 154 148 146 144 145 142 140 137 133 129 125 122 119
215 234 239 233 230 225 217 205 210 212 216 221 203 215 228 221 227 214 189 185 182 177 176 177 179 179 175 173 170 171 171 169 167 164 160 158 152 150 150 148 148 147 146 142 140 131 126 123 119
215 231 227 227 222 222 217 207 200 209 217 203 201 219 219 212 212 196 176 178 178 179 179 178 179 177 175 176 173 173 174 172 170 170 163 157 150 151 155 155 152 152 155 156 142 139 129 124 121
222 225 231 227 231 227 207 212 195 202 210 208 196 199 199 187 189 183 177 178 183 181 182 181 180 178 177 178 176 177 177 173 177 170 169 164 161 162 162 163 159 156 152 153 153 148 151 162 158
233 236 229 229 231 224 228 210 216 215 214 209 201 201 203 180 182 185 186 187 183 183 183 183 182 181 181 177 177 177 175 179 175 174 174 174 159 165 166 167 165 155 148 144 143 143 138 134 150
246 252 240 259 228 211 220 224 216 220 219 215 214 211 194 186 187 191 190 189 182 187 186 185 186 185 184 181 179 179 179 182 182 185 174 181 178 178 178 175 159 154 150 145 142 140 138 134 132
241 242 255 246 248 250 220 224 222 226 223 213 214 206 193 193 196 197 195 190 185 189 188 186 189 188 187 185 186 183 184 186 185 183 179 184 179 173 166 157 157 156 153 151 147 144 141 137 135
261 267 238 246 273 232 242 230 223 223 216 216 207 207 204 196 196 193 197 192 189 186 189 189 190 189 190 191 191 186 187 188 183 181 183 184 175 168 162 161 161 161 160 157 156 152 148 141 138
325 257 259 254 240 255 248 241 231 212 211 210 209 208 206 208 205 196 201 195 191 193 190 191 194 193 194 192 191 189 191 188 185 183 184 182 169 165 165 164 165 165 163 163 159 152 147 142 138
279 266 238 219 248 213 241 240 231 214 208 208 209 215 208 206 205 202 198 200 193 188 196 195 196 193 195 193 195 192 192 190 187 186 183 176 167 169 168 167 167 166 165 162 156 153 150 149 147
195 258 227 239 231 214 211 159 236 208 210 210 211 211 210 210 205 202 199 201 196 198 195 193 197 198 196 195 196 196 195 193 190 187 180 174 171 172 172 171 170 168 167 164 161 159 161 156 151
303 238 259 227 210 219 222 208 209 220 212 220 218 217 214 212 208 202 199 199 201 199 196 196 198 201 197 196 198 197 196 192 192 189 185 178 176 176 176 173 172 170 169 167 168 169 166 163 158
291 301 289 283 229 229 226 218 200 226 215 219 219 217 213 212 207 203 201 198 202 202 194 198 198 199 201 197 198 198 195 193 194 191 188 184 181 180 178 176 175 174 175 176 178 178 174 166 164
259 264 274 277 223 17 228 227 224 224 217 221 216 217 213 211 205 202 200 196 203 202 201 197 205 200 204 202 201 200 198 194 196 192 191 189 185 184 183 182 181 181 183 186 186 186 180 179 168
243 241 249 232 82 150 274 233 216 220 227 223 230 225 218 216 206 200 199 197 203 204 203 196 208 205 204 203 205 201 199 197 196 193 194 192 190 190 189 189 191 191 192 193 192 192 198 188 178
252 228 227 217 225 239 267 203 210 212 209 227 221 222 214 216 212 202 199 201 202 206 206 207 212 208 205 205 208 204 202 199 199 198 198 198 196 194 194 195 197 199 198 199 198 198 203 199 192
261 319 200 185 184 215 239 282 194 208 208 216 226 225 221 220 214 204 205 203 200 205 208 211 215 212 211 208 208 210 206 206 199 200 202 201 200 198 198 198 199 201 203 204 205 204 204 204 206
323 254 206 174 155 226 193 333 59 178 264 319 246 215 225 217 212 213 209 203 202 206 211 210 215 213 213 212 211 210 213 208 205 205 203 201 203 203 201 203 203 203 205 207 207 207 208 209 212
347 188 151 186 190 221 148 173 55 2 355 323 312 296 276 238 215 207 208 202 208 207 208 212 211 214 218 219 217 213 212 211 211 208 204 206 204 206 204 204 204 203 204 209 208 209 211 211 214
310 349 29 165 171 156 184 177 82 7 353 336 337 315 268 255 223 209 205 203 205 210 214 215 211 213 213 212 215 216 221 215 212 212 207 207 207 211 209 206 207 206 208 209 210 210 211 212 214
344 28 351 300 20 148 77 87 190 2 356 353 359 3 350 307 228 215 211 211 209 210 215 214 212 214 214 216 216 219 222 220 222 211 212 210 211 210 212 211 208 210 212 212 211 212 213 213 216
31 340 131 333 146 113 95 60 349 345 343 344 352 353 350 342 220 222 211 211 212 214 217 217 214 215 215 215 219 222 217 226 235 219 221 222 215 213 219 216 213 211 213 214 213 214 214 215 217
10 14 347 283 341 39 141 78 352 341 340 338 346 348 351 349 276 203 201 208 212 215 217 216 215 216 213 214 217 216 220 221 224 223 218 211 226 227 224 221 230 216 215 212 210 215 216 216 216
29 7 342 328 30 48 25 89 358 351 345 348 344 349 360 354 351 220 191 201 210 214 215 212 212 212 213 214 219 216 217 219 217 220 222 219 223 219 224 225 217 213 229 223 213 215 222 223 221
Wind_Speed_850mb
33 30 17 22 7 6 41 38 25 28 15 21 16 17 24 35 29 8 8 32 38 59 63 57 55 49 50 46 40 36 37 36 34 34 34 35 36 36 36 37 38 40 40 43 46 45 44 45 47
35 31 28 10 16 21 34 47 39 31 17 24 19 17 14 28 32 12 3 36 45 61 59 59 57 51 49 46 41 37 36 38 36 37 36 36 38 38 38 39 39 40 42 44 45 43 47 47 45
35 34 23 12 23 43 33 41 43 37 27 24 16 17 20 15 25 18 14 30 57 60 57 57 57 53 49 45 43 39 38 38 40 38 37 37 38 37 40 41 40 41 42 43 44 45 45 44 42
28 19 12 23 49 44 56 29 35 34 26 25 25 11 15 29 9 33 31 30 61 60 59 60 58 57 51 45 42 42 41 41 40 38 37 37 39 40 40 40 41 42 46 45 45 44 44 42 41
35 18 25 41 58 49 43 49 35 38 37 33 34 33 13 24 47 19 26 44 61 67 64 66 61 58 52 46 44 44 45 43 41 40 39 41 42 42 41 39 45 48 47 47 47 45 44 44 42
32 25 26 50 56 51 42 38 49 48 43 32 24 46 29 15 34 49 25 50 59 74 68 66 63 60 54 48 46 47 46 46 44 41 40 41 42 42 40 40 50 50 48 46 45 44 42 41 37
42 26 51 54 56 51 59 34 45 51 56 44 27 39 40 36 29 31 31 48 66 72 69 67 65 61 56 48 50 48 48 47 45 43 44 44 44 45 44 45 44 48 48 48 48 47 43 39 36
42 14 54 58 51 59 50 43 36 57 52 39 30 26 34 44 44 33 36 55 70 76 72 68 65 63 61 51 50 50 49 49 48 47 49 47 47 47 47 45 46 46 44 42 42 46 45 42 38
59 25 42 69 59 46 46 37 39 34 47 35 34 35 24 32 47 41 45 58 64 77 72 68 67 62 58 57 56 51 51 51 50 50 51 52 53 53 50 49 52 45 41 43 44 36 44 45 41
28 34 71 41 48 36 39 44 50 29 43 39 30 39 28 26 44 54 63 72 76 80 79 72 70 66 63 62 61 57 55 54 54 54 58 62 61 58 56 54 48 40 35 35 37 39 37 31 33
19 61 31 40 47 62 42 39 46 48 51 64 52 56 44 39 45 56 62 78 94 86 84 79 77 71 71 68 67 63 61 60 60 64 64 56 53 52 47 41 36 37 41 43 44 40 35 33 36
44 52 68 30 32 51 49 44 41 56 49 55 60 61 50 48 51 61 70 70 81 79 90 84 82 79 75 74 71 69 70 68 66 62 62 53 50 50 46 43 47 48 45 45 44 42 39 36 36
42 43 41 55 57 25 53 61 58 60 56 27 52 49 53 54 53 58 72 75 78 92 92 87 83 83 79 76 76 75 73 68 62 53 56 53 51 50 51 53 52 49 45 43 41 38 35 38 36
22 33 57 55 42 59 37 54 62 60 50 59 30 55 57 55 56 59 74 78 78 89 94 94 86 86 84 82 77 76 74 69 61 58 56 52 51 53 56 55 52 50 47 44 38 39 41 41 41
28 45 38 37 56 31 26 44 66 44 46 59 50 39 51 62 60 65 80 85 80 99 100 98 96 90 90 84 79 77 73 67 64 62 57 52 53 56 57 56 54 50 46 41 42 46 48 49 46
12 16 18 28 46 32 35 37 50 53 40 52 55 57 43 55 64 64 75 89 85 93 106 102 98 95 92 86 84 78 74 68 67 64 58 58 57 58 58 57 55 51 48 48 52 54 53 46 37
17 15 33 35 38 43 42 5 25 57 47 52 55 54 52 51 59 63 69 89 90 100 96 96 100 96 93 91 81 78 75 68 68 64 61 62 63 60 59 57 56 55 55 57 57 55 46 42 39
12 12 23 45 26 47 49 25 13 41 56 56 53 47 55 54 63 66 67 74 94 84 99 112 105 100 93 91 83 81 78 71 68 64 64 67 66 64 62 59 59 60 61 61 58 51 47 42 40
29 25 30 18 22 38 48 51 27 39 33 52 63 60 50 56 56 63 69 76 91 92 97 101 106 104 94 92 89 84 81 78 73 69 66 67 67 67 63 61 62 63 60 58 53 50 46 44 37
24 29 35 27 8 6 34 43 43 37 38 54 52 63 55 47 52 59 71 75 92 92 103 105 104 105 99 99 83 88 83 80 78 75 71 68 69 68 65 64 64 64 63 59 54 52 52 44 46
25 26 36 25 9 8 8 30 43 52 47 40 55 59 65 55 52 59 71 74 90 95 101 98 106 100 101 94 92 94 87 87 82 78 74 73 75 72 67 64 62 61 60 58 58 56 48 50 49
19 21 32 30 8 6 8 16 46 48 44 39 30 46 61 60 47 56 68 75 89 97 95 101 100 102 103 101 95 88 94 94 89 85 80 80 80 76 72 67 62 59 59 59 58 57 50 48 48
13 29 27 32 23 7 8 8 30 45 44 48 44 42 48 53 52 48 65 66 80 92 97 97 98 101 102 103 100 95 95 89 93 91 85 83 83 81 78 73 68 64 60 59 58 58 53 50 47
28 13 21 25 13 12 9 7 7 8 15 10 24 52 44 46 51 56 54 65 79 87 92 98 100 100 98 101 99 102 99 98 99 95 91 89 86 85 83 76 71 65 61 58 57 57 57 52 45
37 12 12 16 12 9 19 11 11 18 19 20 23 35 29 34 42 49 61 72 82 84 93 102 101 97 103 99 100 103 103 100 102 102 100 97 95 94 91 83 79 75 67 64 63 62 58 54 49
19 12 6 15 17 15 15 8 10 20 30 31 23 21 25 29 37 43 59 72 83 89 99 100 100 97 100 98 102 97 103 104 111 107 104 101 98 97 96 90 84 80 77 74 71 67 63 60 55
16 9 9 8 7 16 4 8 12 33 34 40 40 31 25 15 37 48 60 73 82 93 100 97 98 94 95 98 96 88 86 88 95 102 105 107 107 102 103 98 95 93 83 79 74 71 69 64 59
16 15 0 3 7 8 9 10 16 40 38 35 32 40 45 25 22 41 64 72 78 92 97 95 94 92 93 90 81 84 89 74 77 69 79 91 99 86 100 103 98 88 83 81 79 78 72 67 62
25 10 8 5 8 3 10 7 21 28 28 32 28 40 41 34 7 36 56 71 75 86 91 94 91 92 91 85 82 77 75 71 71 73 80 90 92 90 101 75 83 83 83 86 74 72 71 69 62
36 21 7 8 8 8 4 8 22 25 21 34 36 36 36 25 15 18 44 59 68 77 82 86 93 88 85 83 80 74 73 70 67 62 63 72 73 78 76 82 62 58 53 55 65 61 63 67 63
Wind_Direction_850mb
210 217 193 165 204 243 230 228 218 197 189 197 161 188 207 216 195 206 195 187 173 176 175 177 178 174 175 173 174 172 170 164 161 153 152 151 147 144 142 137 135 131 127 128 126 125 129 126 122
198 189 186 207 225 209 228 216 204 204 181 158 182 190 201 222 224 271 230 191 174 174 174 176 179 176 177 173 173 174 167 163 160 155 152 152 152 149 144 142 140 135 131 131 128 127 126 126 124
191 177 186 206 226 224 227 215 228 216 184 159 153 209 217 227 217 222 236 186 170 172 172 175 177 178 178 172 171 168 163 157 159 156 153 154 153 152 149 146 143 137 136 135 130 129 128 128 127
186 191 232 230 221 225 234 215 210 192 193 191 190 189 218 216 187 213 228 185 171 172 171 175 179 178 176 172 167 163 160 161 159 156 156 155 155 153 150 145 146 142 140 136 134 132 131 132 130
192 209 225 231 233 224 227 233 198 198 195 192 189 218 225 214 224 225 205 182 174 175 173 173 179 177 176 171 165 161 162 160 160 159 159 157 157 155 150 147 147 142 138 134 132 131 131 131 130
192 218 225 227 223 215 231 209 209 216 214 205 197 223 227 209 214 229 206 180 177 178 175 175 178 176 176 171 163 166 163 162 162 160 160 160 158 150 148 145 143 138 135 134 132 130 127 127 125
217 210 230 235 226 218 222 202 207 209 216 204 212 213 225 232 230 219 206 177 185 176 175 178 178 177 175 169 165 169 167 166 165 163 162 159 154 148 146 144 145 142 140 137 133 129 125 122 119
215 234 239 233 230 225 217 205 210 212 216 221 203 215 228 221 227 214 189 185 182 177 176 177 179 179 175 173 170 171 171 169 167 164 160 158 152 150 150 148 148 147 146 142 140 131 126 123 119
215 231 227 227 222 222 217 207 200 209 217 203 201 219 219 212 212 196 176 178 178 179 179 178 179 177 175 176 173 173 174 172 170 170 163 157 150 151 155 155 152 152 155 156 142 139 129 124 121
222 225 231 227 231 227 207 212 195 202 210 208 196 199 199 187 189 183 177 178 183 181 182 181 180 178 177 178 176 177 177 173 177 170 169 164 161 162 162 163 159 156 152 153 153 148 151 162 158
233 236 229 229 231 224 228 210 216 215 214 209 201 201 203 180 182 185 186 187 183 183 183 183 182 181 181 177 177 177 175 179 175 174 174 174 159 165 166 167 165 155 148 144 143 143 138 134 150
246 252 240 259 228 211 220 224 216 220 219 215 214 211 194 186 187 191 190 189 182 187 186 185 186 185 184 181 179 179 179 182 182 185 174 181 178 178 178 175 159 154 150 145 142 140 138 134 132
241 242 255 246 248 250 220 224 222 226 223 213 214 206 193 193 196 197 195 190 185 189 188 186 189 188 187 185 186 183 184 186 185 183 179 184 179 173 166 157 157 156 153 151 147 144 141 137 135
261 267 238 246 273 232 242 230 223 223 216 216 207 207 204 196 196 193 197 192 189 186 189 189 190 189 190 191 191 186 187 188 183 181 183 184 175 168 162 161 161 161 160 157 156 152 148 141 138
325 257 259 254 240 255 248 241 231 212 211 210 209 208 206 208 205 196 201 195 191 193 190 191 194 193 194 192 191 189 191 188 185 183 184 182 169 165 165 164 165 165 163 163 159 152 147 142 138
279 266 238 219 248 213 241 240 231 214 208 208 209 215 208 206 205 202 198 200 193 188 196 195 196 193 195 193 195 192 192 190 187 186 183 176 167 169 168 167 167 166 165 162 156 153 150 149 147
195 258 227 239 231 214 211 159 236 208 210 210 211 211 210 210 205 202 199 201 196 198 195 193 197 198 196 195 196 196 195 193 190 187 180 174 171 172 172 171 170 168 167 164 161 159 161 156 151
303 238 259 227 210 219 222 208 209 220 212 220 218 217 214 212 208 202 199 199 201 199 196 196 198 201 197 196 198 197 196 192 192 189 185 178 176 176 176 173 172 170 169 167 168 169 166 163 158
291 301 289 283 229 229 226 218 200 226 215 219 219 217 213 212 207 203 201 198 202 202 194 198 198 199 201 197 198 198 195 193 194 191 188 184 181 180 178 176 175 174 175 176 178 178 174 166 164
259 264 274 277 223 17 228 227 224 224 217 221 216 217 213 211 205 202 200 196 203 202 201 197 205 200 204 202 201 200 198 194 196 192 191 189 185 184 183 182 181 181 183 186 186 186 180 179 168
243 241 249 232 82 150 274 233 216 220 227 223 230 225 218 216 206 200 199 197 203 204 203 196 208 205 204 203 205 201 199 197 196 193 194 192 190 190 189 189 191 191 192 193 192 192 198 188 178
252 228 227 217 225 239 267 203 210 212 209 227 221 222 214 216 212 202 199 201 202 206 206 207 212 208 205 205 208 204 202 199 199 198 198 198 196 194 194 195 197 199 198 199 198 198 203 199 192
261 319 200 185 184 215 239 282 194 208 208 216 226 225 221 220 214 204 205 203 200 205 208 211 215 212 211 208 208 210 206 206 199 200 202 201 200 198 198 198 199 201 203 204 205 204 204 204 206
323 254 206 174 155 226 193 333 59 178 264 319 246 215 225 217 212 213 209 203 202 206 211 210 215 213 213 212 211 210 213 208 205 205 203 201 203 203 201 203 203 203 205 207 207 207 208 209 212
347 188 151 186 190 221 148 173 55 2 355 323 312 296 276 238 215 207 208 202 208 207 208 212 211 214 218 219 217 213 212 211 211 208 204 206 204 206 204 204 204 203 204 209 208 209 211 211 214
310 349 29 165 171 156 184 177 82 7 353 336 337 315 268 255 223 209 205 203 205 210 214 215 211 213 213 212 215 216 221 215 212 212 207 207 207 211 209 206 207 206 208 209 210 210 211 212 214
344 28 351 300 20 148 77 87 190 2 356 353 359 3 350 307 228 215 211 211 209 210 215 214 212 214 214 216 216 219 222 220 222 211 212 210 211 210 212 211 208 210 212 212 211 212 213 213 216
31 340 131 333 146 113 95 60 349 345 343 344 352 353 350 342 220 222 211 211 212 214 217 217 214 215 215 215 219 222 217 226 235 219 221 222 215 213 219 216 213 211 213 214 213 214 214 215 217
10 14 347 283 341 39 141 78 352 341 340 338 346 348 351 349 276 203 201 208 212 215 217 216 215 216 213 214 217 216 220 221 224 223 218 211 226 227 224 221 230 216 215 212 210 215 216 216 216
29 7 342 328 30 48 25 89 358 351 345 348 344 349 360 354 351 220 191 201 210 214 215 212 212 212 213 214 219 216 217 219 217 220 222 219 223 219 224 225 217 213 229 223 213 215 222 223 221